This is the latest recevied weather packets stored in our database for station/object PA1CD-13. If no packets are shown the sender has not sent any weather packets the latest 1 day(s).
| Time | Temp. | Humidity | Pressure | Rain* | Wind** | Luminosity | Snow |
|---|---|---|---|---|---|---|---|
| 1778070874 | 13.89° C | 62% | 1008.9 hPa | 0 mm | - | 573 W/m² | - |
| 1778070754 | 13.89° C | 62% | 1008.9 hPa | 0 mm | - | 535 W/m² | - |
| 1778070514 | 13.89° C | 62% | 1008.9 hPa | 0 mm | - | 587 W/m² | - |
| 1778070034 | 14.44° C | 62% | 1009 hPa | 0 mm | - | 475 W/m² | - |
| 1778069553 | 14.44° C | 62% | 1008.9 hPa | 0 mm | - | 498 W/m² | - |
| 1778069194 | 14.44° C | 62% | 1008.9 hPa | 0 mm | - | 515 W/m² | - |
| 1778068954 | 14.44° C | 62% | 1008.9 hPa | 0 mm | - | 615 W/m² | - |
| 1778068593 | 14.44° C | 62% | 1008.8 hPa | 0 mm | - | 749 W/m² | - |
| 1778068474 | 14.44° C | 62% | 1008.8 hPa | 0 mm | - | 633 W/m² | - |
| 1778068353 | 14.44° C | 62% | 1008.8 hPa | 0 mm | - | 633 W/m² | - |
| 1778068113 | 13.89° C | 62% | 1008.8 hPa | 0 mm | - | 556 W/m² | - |
| 1778067993 | 13.89° C | 62% | 1009 hPa | 0 mm | - | 475 W/m² | - |
| 1778067873 | 13.89° C | 62% | 1008.8 hPa | 0 mm | - | 475 W/m² | - |
| 1778067753 | 13.89° C | 62% | 1008.8 hPa | 0 mm | - | 417 W/m² | - |
| 1778067633 | 14.44° C | 63% | 1008.7 hPa | 0 mm | - | 406 W/m² | - |
| 1778067272 | 14.44° C | 62% | 1008.7 hPa | 0 mm | - | 343 W/m² | - |
| 1778066793 | 15° C | 62% | 1008.7 hPa | 0 mm | - | 364 W/m² | - |
| 1778066672 | 15° C | 62% | 1008.8 hPa | 0 mm | - | 714 W/m² | - |
| 1778066433 | 15° C | 62% | 1008.8 hPa | 0 mm | - | 853 W/m² | - |
| 1778066073 | 15° C | 62% | 1008.7 hPa | 0 mm | - | 628 W/m² | - |
| 1778065471 | 15° C | 62% | 1008.6 hPa | 0 mm | - | 538 W/m² | - |
| 1778065353 | 15° C | 62% | 1008.7 hPa | 0 mm | - | 974 W/m² | - |
| 1778064513 | 14.44° C | 61% | 1008.7 hPa | 0 mm | - | 471 W/m² | - |
| 1778064125 | 14.44° C | 60% | 1008.7 hPa | 0 mm | - | 828 W/m² | - |
| 1778063252 | 13.89° C | 61% | 1008.7 hPa | 0 mm | - | 406 W/m² | - |
* Rain latest hour (hover to see other rain measurements)
** Current wind speed in m/s (hover to see current wind gust speed)